162P/Siding Spring (2020)

Japanese version
Home page
Updated on August 14, 2020

---------------------------------------------------------------------

* Profile

* Orbital Elements

Epoch 2020 Dec. 17.0 TT = JDT 2459200.5
T 2020 Dec. 7.81995 TT                                  Rudenko
q   1.2891349            (2000.0)            P               Q
n   0.18141177     Peri.  357.13420     +0.87966235     -0.41197194
a   3.0904786      Node    30.91115     +0.44503703     +0.53678739
e   0.5828689      Incl.   27.55496     +0.16773850     +0.73630049
P   5.43
From 2002 observations 1990 Mar. 23-2020 July 2, mean residual 0".4.

* Finding Charts

* Magnitudes Graph

        H = 13.7  G = 0.15

---------------------------------------------------------------------

The orbital elements are published on M.P.E.C. 2020-P19.
The charts are made with StellaNavigator Ver.10 (AstroArts).
The magnitudes graphs are made with Comet for Windows.

---------------------------------------------------------------------

Copyright(C) Seiichi Yoshida (comet@aerith.net). All rights reserved.